Regional Weather Roundup
Issued by NWS Charleston, SC

Current Version | Previous Version | Text Only | Print | Product List | Glossary On
Versions: 1 2 3 4 5 6 7 8 9 10 11 12 13 14 15 16 17 18 19 20 21 22 23 24 25 26 27 28 29 30 31 32 33 34 35 36 37 38 39 40 41 42 43 44 45 46 47 48 49 50
000
ASUS42 KCHS 260227
RWRCHS

REGIONAL WEATHER ROUNDUP
NATIONAL WEATHER SERVICE CHARLESTON SC
1000 PM EDT SAT APR 25 2015

NOTE: "FAIR" INDICATES FEW OR NO CLOUDS BELOW 12,000 FEET WITH NO
SIGNIFICANT WEATHER AND/OR OBSTRUCTIONS TO VISIBILITY.

NOT ALL STATIONS ARE QUALITY CONTROLLED BY THE NATIONAL
WEATHER SERVICE. USE DATA WITH CAUTION...ESPECIALLY
DEWPOINT OBSERVATIONS.

SCZ027-030-031-034>040-042>050-260300-
...SOUTHEAST SOUTH CAROLINA...

CITY           SKY/WX    TMP DP  RH WIND       PRES   REMARKS
N CHARLESTON   TSTM      72  68  88 SW10      29.68R
WATERFRONT PRK   N/A     70 N/A N/A SW7         N/A
MOUNT PLEASANT LGT RAIN  72  70  94 MISG      29.67R
PINOPOLIS      NOT AVBL
MONCKS CORNER  FAIR      73  68  83 S9        29.64S
SUMMERVILLE    LGT RAIN  72  70  94 S7        29.66R
BEAUFORT MCAS  TSTM      67  65  93 S7        29.71R FOG
BEAUFORT ARPT  TSTM      66  66 100 SW8       29.73R
HILTON HEAD IS RAIN      66  66 100 S3        29.76F
WALTERBORO     LGT RAIN  70  68  94 SW13      29.67S
ALLENDALE      MOCLDY    72  70  94 S9G15     29.64F

...SOUTHERN MIDLANDS AND PEE DEE...

CITY           SKY/WX    TMP DP  RH WIND       PRES   REMARKS
GEORGETOWN     NOT AVBL
KINGSTREE      NOT AVBL
ORANGEBURG     LGT RAIN  71  67  87 S3        29.62F
BARNWELL       MOCLDY    73  72  94 W7        29.65R
AIKEN          FAIR      70  64  83 SW7       29.66S
MANNING        LGT RAIN  70  54  56 S5        29.62S
COLUMBIA       CLOUDY    68  65  90 S5        29.59F
SUMTER         CLOUDY    68  65  92 S5        29.59F
FLORENCE       CLOUDY    65  63  93 S3        29.60F
MYRTLE BEACH   CLEAR     70  64  83 SW6       29.63F
N MYRTLE BEACH CLOUDY    68  66  93 SW6       29.61F

$$

GAZ063-065-086>088-099>101-113>116-118-119-134>141-150-260300-
...SOUTHEAST GEORGIA...

CITY           SKY/WX    TMP DP  RH WIND       PRES   REMARKS
SAVANNAH ARPT  TSTM      66  63  90 W6        29.73F
HUNTER AAF     TSTM      65  65 100 W1        29.73F
FORT STEWART   TSTM      66  64  92 S5        29.72F FOG
STATESBORO       N/A     66  66 100 SW6       29.70R
SYLVANIA       CLOUDY    66  66  99 SW5       29.69R
CLAXTON        CLOUDY    66  66 100 W6        29.73R

...CSRA...CENTRAL AND FAR SOUTHEAST GEORGIA...

CITY           SKY/WX    TMP DP  RH WIND       PRES   REMARKS
THOMSON        CLOUDY    71  68  92 SW7       29.69R
AUGUSTA-BUSH   CLOUDY    72  67  84 SW12      29.62R
AUGUSTA-DANIEL CLOUDY    74  68  81 SW13      29.63S
SWAINSBORO     NOT AVBL
VIDALIA        CLOUDY    68  66  94 SW9G17    29.71R
EASTMAN        FAIR      67  67 100 SW8       29.65F
HAZLEHURST     MOCLDY    68  68 100 CALM      29.71F
ALMA           LGT RAIN  68  66  93 CALM      29.73F
WAYCROSS       CLOUDY    72  71  97 CALM      29.74F
JESUP          LGT RAIN  70  68  94 W5        29.74F
BAXLEY         FAIR      70  68  94 S3        29.71F
BRUNSWICK      CLOUDY    72  66  83 W13G31    29.78R
SAINT SIMONS   LGT RAIN  73  70  90 W12       29.78R

$$

SCZ027-028-034-036>038-045-046-048>050-GAZ119-141-260300-
...LAKE AND SUPPLEMENTAL COASTAL OBSERVATIONS...

STATION/POSITION TIME  TEMP    WIND        PRES    WAVE   SWELL
                       AIR SEA DIR/SP/G            HT/PER HT/PER/DIR
                 (UTC) (F)     (DEG/KT/KT) (MB)    (FT/S) (FT/S/D)
UPR LAKE MARION  NOT AVBL
WINYAH BAY       0100   70     220/  7     1002.0F
LAKE MURRAY      0100   69     230/  4/  5 1002.4F
ACE BASIN NERRS  NOT AVBL
FORT PULASKI     0100   74 71  150/  4/  6 1005.0R
SAPELO ISLAND    0200   75     240/ 18     1007.0R

$$

ANZ835-935-AMZ111-154-330-350-352-354-370-450-454-472-260300-
...C-MAN AND BUOY OBSERVATIONS...

STATION/POSITION TIME  TEMP    WIND        PRES    WAVE   SWELL
                       AIR SEA DIR/SP/G            HT/PER HT/PER/DIR
                 (UTC) (F)     (DEG/KT/KT) (MB)    (FT/S) (FT/S/D)
BUOY 41004       0150   72 71  210/ 16/ 17 1004.3R   4/ 6   2/10
BUOY 41008       0150   72 69  240/ 14/ 16 1006.7R   3/ 5   2/290/12
FOLLY BEACH CMAN 0200   70     210/ 11/ 13 1005.3R
CAPERS NEARSHORE 0108   70     220/ 16/ 21 1004.2F
FRIPP NEARSHORE  0100   71     250/  8/ 12 1004.7R


STATION/POSITION TIME  TEMP    WIND        PRES    WAVE   SWELL
                       AIR SEA DIR/SP/G            HT/PER HT/PER/DIR
                 (UTC) (F)     (DEG/KT/KT) (MB)    (FT/S) (FT/S/D)
5E ST. MARYS GA  0121      70                N/A     2/13
FRYING PAN BUOY  0150   74 71  230/ 21/ 25 1003.3F   7/ 7   2/100/12
BUOY 41025       0150   63 75   50/  8/ 10 1002.9F   3/ 8   3/ 40/ 8
CAPE LOOKOUT NC  0200   64     310/  4/  5 1001.8F
BUOY 41002       0150   72 71  210/ 21/ 25 1007.4F   6/ 6   2/ 50/11
BUOY 41010       0120   79 79  190/ 19/ 21 1009.3F
ST AUGUSTINE FL  0200   78 69  240/  5/ 10 1009.3R


$$


USA.gov is the U.S. government's official web portal to all federal, state and local government web resources and services.